Orbital Elements
Epoch 2019 Aug. 25.0 TT = JDT 2458720.5
T 2019 Sept. 8.69989 TT Rudenko
q 1.3395043 (2000.0) P Q
z +0.0082129 Peri. 3.50033 +0.57742210 -0.79095579
+/-0.0000005 Node 308.65548 -0.75522867 -0.61164233
e 0.9889988 Incl. 164.97713 -0.31018281 +0.01681096
H 15.7
From 287 observations 2018 Nov. 2-2020 June 16, mean residual 0".6.
|